CW3053 Weather Reports


Display with metric or nautical units.
time (UTC)temp
F
wind
direction
speed
MPH
gust
MPH
rain 1hr
in
rain 24hr
in
rain mn
in
humidity
%
barometer
mb
20220627134828 74 258 4.0 9.0 0.00 0.00 0.00 78 1010.3
20220627133330 74 132 1.0 8.0 0.00 0.00 0.00 79 1010.5
20220627131829 74 272 2.0 13.0 0.00 0.00 0.00 79 1010.5
20220627130333 74 256 5.0 11.0 0.00 0.00 0.00 78 1010.5
20220627124833 74 101 3.0 15.0 0.00 0.00 0.00 78 1010.4
20220627123319 74 246 1.0 8.0 0.00 0.00 0.00 78 1010.3
20220627121820 73 69 1.0 8.0 0.00 0.00 0.00 78 1010.5
20220627120323 73 125 2.0 9.0 0.00 0.00 0.00 78 1010.5
20220627114822 72 269 2.0 9.0 0.00 0.00 0.00 78 1010.6
20220627113325 72 121 1.0 6.0 0.00 0.00 0.00 78 1010.5
20220627111828 72 226 3.0 8.0 0.00 0.00 0.00 77 1010.6
20220627110331 72 261 3.0 12.0 0.00 0.00 0.00 77 1010.5
20220627104829 71 94 1.0 9.0 0.00 0.00 0.00 78 1010.6
20220627103333 71 164 2.0 5.0 0.00 0.00 0.00 78 1010.6
20220627101831 71 69 2.0 6.0 0.00 0.00 0.00 79 1011.0
20220627100318 70 112 2.0 6.0 0.00 0.00 0.00 79 1011.0
20220627094817 70 138 2.0 5.0 0.00 0.00 0.00 79 1011.1
20220627093317 70 199 2.0 5.0 0.00 0.00 0.00 78 1011.4
20220627091833 70 121 1.0 5.0 0.00 0.00 0.00 77 1011.5
20220627090332 70 177 1.0 4.0 0.00 0.00 0.00 76 1011.5
20220627084815 70 242 1.0 6.0 0.00 0.00 0.00 75 1011.6
20220627083318 70 221 2.0 7.0 0.00 0.00 0.00 74 1011.6
20220627081824 71 232 1.0 8.0 0.00 0.00 0.00 73 1011.7
20220627080324 71 219 2.0 7.0 0.00 0.00 0.00 71 1011.9
20220627074828 71 204 2.0 9.0 0.00 0.00 0.00 69 1012.0
20220627073326 71 135 1.0 5.0 0.00 0.00 0.00 67 1012.1
20220627071832 72 240 2.0 7.0 0.00 0.00 0.00 66 1012.4
20220627070330 72 274 1.0 9.0 0.00 0.00 0.00 64 1012.6